STARLINK-3779

operational
NORAD ID: 52281 Int'l Des: 2022-041 Owner: SPXS Country: US Constellation: starlink
LEOCIRCULAR

Über STARLINK-3779

Beschreibung wird geladen...

Live-Position

3D-Globus wird geladen...

Nächste Überflüge

Höhenverlauf

Altitude vs Time

uPlot chart will show altitude changes over time

Zweizeiliger Elementsatz

1 52281U 22041W 25251.31349643 -.00001667 00000-0 -86689-4 0 9998
2 52281 53.2188 207.8419 0001469 74.9311 285.1844 15.08839709186831
Epoch: 8. Sept. 2025 • Age: 17 hours

Aktueller Status

Höhe 558.4 km
Geschwindigkeit 7.58 km/s
Subsatellitenpunkt -51.00°S, 94.77°E
Startdatum 21. Apr. 2022
Alter 3.3 years
Typ internet

Technische Details

Klassifizierung Payload
Masse 297.00 kg
Trockenmasse 275.00 kg
Gesamtmasse 297.00 kg
Länge 0.20 m
Durchmesser 2.80 m
Spannweite 9.00 m
Form Box + pan
Hersteller SPXS
Bus-Typ Starlink
Phasenstatus In Orbit
Besitzer/Staat SPXS/US

Große Konstellationen

Loading constellations...